KK7GO-WX Weather Reports


time (UTC)temp
F
wind
direction
speed
knots
gust
knots
rain 1hr
in
rain 24hr
in
rain mn
in
humidity
%
barometer
mb
20260904101036 52 360 0.0 0.9 0.00 0.00 0.00 73 1009.8
20260904100542 52 360 0.0 0.9 0.00 0.00 0.00 73 1009.8
20260904100108 52 360 0.0 1.7 0.00 0.00 0.00 73 1009.8
20260904095524 52 360 0.0 1.7 0.00 0.00 0.00 73 1009.5
20260904095048 52 360 0.0 0.9 0.00 0.00 0.00 73 1009.6
20260904094604 52 360 0.0 0.9 0.00 0.00 0.00 73 1009.4
20260904094002 52 360 0.0 0.9 0.00 0.00 0.00 73 1009.4
20260904093542 52 360 0.0 2.6 0.00 0.00 0.00 72 1009.5
20260904093004 52 360 0.0 2.6 0.00 0.00 0.00 72 1009.5
20260904092543 52 360 0.0 1.7 0.00 0.00 0.00 72 1009.4
20260904092017 52 360 0.0 1.7 0.00 0.00 0.00 73 1009.4
20260904091542 52 360 0.0 1.7 0.00 0.00 0.00 73 1009.4
20260904091008 52 360 0.0 1.7 0.00 0.00 0.00 73 1009.3
20260904090547 52 360 0.0 2.6 0.00 0.00 0.00 73 1009.3
20260904090057 52 360 0.0 2.6 0.00 0.00 0.00 74 1009.3
20260904085530 52 360 0.9 2.6 0.00 0.00 0.00 73 1009.3
20260904085059 52 38 0.9 2.6 0.00 0.00 0.00 72 1009.2
20260904084510 52 22 0.9 2.6 0.00 0.00 0.00 72 1009.3
20260904084039 52 22 0.9 2.6 0.00 0.00 0.00 72 1009.3
20260904083609 52 360 0.9 2.6 0.00 0.00 0.00 72 1009.4
20260904083010 52 360 0.0 1.7 0.00 0.00 0.00 72 1009.3
20260904082541 52 360 0.9 2.6 0.00 0.00 0.00 72 1009.5
20260904082002 52 360 0.9 2.6 0.00 0.00 0.00 72 1009.4
20260904081512 52 360 0.9 3.5 0.00 0.00 0.00 72 1009.3
20260904081049 52 360 0.0 3.5 0.00 0.00 0.00 72 1009.3
20260904080510 52 360 0.0 2.6 0.00 0.00 0.00 71 1009.1
20260904080042 52 360 0.0 2.6 0.00 0.00 0.00 71 1009.1
20260904075502 52 360 0.0 2.6 0.00 0.00 0.00 70 1009.1
20260904075037 52 42 0.0 2.6 0.00 0.00 0.00 69 1009.2
20260904074545 52 49 0.0 2.6 0.00 0.00 0.00 68 1009.1
20260904074007 53 51 0.0 2.6 0.00 0.00 0.00 68 1009.1
20260904073513 53 51 0.0 1.7 0.00 0.00 0.00 67 1009.1
20260904073051 53 51 0.0 1.7 0.00 0.00 0.00 67 1009.0
20260904072521 53 51 0.0 1.7 0.00 0.00 0.00 67 1009.0
20260904072032 54 51 0.0 1.7 0.00 0.00 0.00 66 1009.0
20260904071555 54 51 0.0 2.6 0.00 0.00 0.00 65 1009.0
20260904071102 54 70 0.0 2.6 0.00 0.00 0.00 65 1008.9
20260904070505 54 74 0.0 2.6 0.00 0.00 0.00 65 1008.9
20260904070041 54 78 0.0 1.7 0.00 0.00 0.00 64 1008.8
20260904065558 54 82 0.0 2.6 0.00 0.00 0.00 64 1008.9
20260904065031 55 83 0.0 2.6 0.00 0.00 0.00 64 1008.8
20260904064524 55 84 0.0 2.6 0.00 0.00 0.00 64 1008.9
20260904064039 55 85 0.0 3.5 0.00 0.00 0.00 63 1008.9
20260904063548 55 360 0.9 3.5 0.00 0.00 0.00 64 1009.0
20260904063007 55 360 1.7 2.6 0.00 0.00 0.00 64 1009.0
20260904062548 55 360 0.0 2.6 0.00 0.00 0.00 65 1009.0
20260904062014 55 360 0.9 2.6 0.00 0.00 0.00 64 1008.9
20260904061554 55 360 0.9 2.6 0.00 0.00 0.00 64 1009.0
20260904061033 56 360 0.0 3.5 0.00 0.00 0.00 64 1008.9
20260904060546 55 360 0.9 3.5 0.00 0.00 0.00 63 1008.9
20260904060050 55 360 0.0 1.7 0.00 0.01 0.00 63 1008.9
20260904055600 56 360 0.0 1.7 0.00 0.01 0.00 64 1008.9
20260904055008 56 360 0.9 1.7 0.00 0.01 0.00 65 1008.9
20260904054551 56 360 0.0 2.6 0.00 0.01 0.00 65 1009.0
20260904054023 56 360 0.9 2.6 0.00 0.01 0.00 64 1009.1
20260904053534 56 360 0.0 2.6 0.00 0.01 0.00 64 1009.1
20260904053044 56 360 0.9 2.6 0.00 0.01 0.00 64 1009.1
20260904052512 56 360 0.9 2.6 0.00 0.01 0.00 64 1009.1
20260904052050 56 57 0.9 4.3 0.00 0.01 0.00 63 1009.1
20260904051516 56 44 1.7 4.3 0.00 0.01 0.00 63 1009.3
20260904051056 56 41 1.7 4.3 0.00 0.01 0.00 63 1009.2
20260904050531 57 360 1.7 4.3 0.00 0.01 0.00 62 1009.3
20260904050100 57 28 1.7 3.5 0.00 0.01 0.00 62 1009.3
20260904045520 57 360 0.9 5.2 0.00 0.01 0.00 62 1009.4
20260904045100 57 39 1.7 8.7 0.00 0.01 0.00 62 1009.2
20260904044535 57 17 2.6 8.7 0.00 0.01 0.00 62 1009.4
20260904044105 57 24 3.5 7.8 0.00 0.01 0.00 62 1009.3
20260904043508 57 38 1.7 4.3 0.00 0.01 0.00 62 1009.3
20260904043051 57 32 0.9 7.0 0.00 0.01 0.00 62 1009.2
20260904042524 57 64 2.6 7.0 0.00 0.01 0.00 62 1009.1
20260904042052 57 36 2.6 5.2 0.00 0.01 0.00 62 1009.3
20260904041516 57 360 0.9 2.6 0.00 0.01 0.00 62 1009.3
20260904041056 57 360 0.0 2.6 0.00 0.01 0.00 62 1009.1
20260904040534 57 360 0.0 2.6 0.00 0.01 0.00 62 1009.0
20260904040106 57 360 0.0 3.5 0.00 0.01 0.00 62 1009.0
20260904035510 57 360 0.9 4.3 0.00 0.01 0.00 62 1008.9
20260904035051 57 360 1.7 4.3 0.00 0.01 0.00 62 1008.8
20260904034529 57 21 0.9 4.3 0.00 0.01 0.00 63 1008.7
20260904034054 57 360 0.9 4.3 0.00 0.01 0.00 62 1008.8
20260904033521 57 18 1.7 8.7 0.00 0.01 0.00 62 1008.8
20260904033056 57 360 1.7 8.7 0.00 0.01 0.00 62 1008.8
20260904032534 58 360 1.7 5.2 0.00 0.01 0.00 62 1008.5
20260904032104 58 360 1.7 3.5 0.00 0.01 0.00 62 1008.5
20260904031608 58 360 0.9 3.5 0.00 0.01 0.00 61 1008.5
20260904031105 58 360 0.9 2.6 0.00 0.01 0.00 61 1008.2
20260904030607 58 360 0.9 3.5 0.00 0.01 0.00 61 1008.2
20260904030006 58 360 0.9 3.5 0.00 0.01 0.00 60 1008.1
20260904025511 59 360 0.0 5.2 0.00 0.01 0.00 59 1008.1
20260904025030 59 360 0.9 5.2 0.00 0.01 0.00 59 1007.9
20260904024517 60 34 0.9 7.0 0.00 0.01 0.00 58 1007.8
20260904024036 60 360 0.9 7.0 0.00 0.01 0.00 57 1007.7
20260904023530 60 360 0.9 3.5 0.00 0.01 0.00 57 1007.7
20260904023035 60 360 0.0 1.7 0.00 0.01 0.00 57 1007.6
20260904022506 60 360 0.0 7.0 0.00 0.01 0.00 57 1007.6
20260904022043 60 360 2.6 7.0 0.00 0.01 0.00 56 1007.6
20260904021509 61 360 0.0 4.3 0.00 0.01 0.00 56 1007.6
20260904021014 61 360 0.9 7.0 0.00 0.01 0.00 55 1007.5
20260904020551 61 360 0.0 7.0 0.00 0.01 0.00 55 1007.5
20260904020029 62 82 0.9 3.5 0.00 0.01 0.00 54 1007.6
20260904015511 62 360 1.7 7.0 0.00 0.01 0.00 54 1007.4
20260904015014 62 360 2.6 7.0 0.00 0.01 0.00 53 1007.5
20260904014508 63 360 2.6 4.3 0.00 0.01 0.00 52 1007.5
20260904014044 63 360 0.9 3.5 0.00 0.01 0.00 52 1007.2
20260904013514 64 360 0.9 3.5 0.00 0.01 0.00 51 1007.3
20260904013041 64 360 0.9 3.5 0.00 0.01 0.00 51 1007.2
20260904012538 65 360 0.9 7.0 0.00 0.01 0.00 51 1007.1
20260904012004 66 360 1.7 7.0 0.00 0.01 0.00 49 1007.1
20260904011545 66 360 0.9 3.5 0.00 0.01 0.00 47 1007.2
20260904011051 67 360 0.0 3.5 0.00 0.01 0.00 46 1007.1
20260904010514 67 360 0.0 4.3 0.00 0.01 0.00 46 1007.2
20260904010040 68 17 0.0 3.5 0.00 0.01 0.00 45 1007.3
20260904005555 68 165 1.7 4.3 0.00 0.01 0.00 41 1007.3
20260904005006 69 161 0.9 6.1 0.00 0.01 0.00 40 1007.3
20260904004526 69 78 1.7 6.1 0.00 0.01 0.00 39 1007.2
20260904004022 70 150 2.6 6.1 0.00 0.01 0.00 38 1007.1
20260904003554 70 156 1.7 5.2 0.00 0.01 0.00 37 1007.1
20260904003111 69 148 2.6 5.2 0.00 0.01 0.00 37 1007.1
20260904002504 69 196 1.7 6.1 0.00 0.01 0.00 37 1007.2
20260904002014 69 219 3.5 7.0 0.00 0.01 0.00 37 1007.2
20260904001535 69 188 1.7 7.0 0.00 0.01 0.00 37 1007.2
20260904001043 69 195 3.5 7.0 0.00 0.01 0.00 37 1007.3
20260904000551 69 146 2.6 6.1 0.00 0.01 0.00 37 1007.3
20260904000009 69 186 3.5 5.2 0.00 0.01 0.00 37 1007.3
20260903235555 69 188 0.9 7.8 0.00 0.01 0.00 36 1007.3
20260903235025 69 150 3.5 7.8 0.00 0.01 0.00 37 1007.2
20260903234556 69 186 1.7 7.8 0.00 0.01 0.00 37 1007.3
20260903234019 69 173 2.6 7.0 0.00 0.01 0.00 36 1007.3
20260903233600 69 183 2.6 8.7 0.00 0.01 0.00 36 1007.3
20260903233036 69 179 4.3 8.7 0.00 0.01 0.00 37 1007.3
20260903232603 69 157 4.3 8.7 0.00 0.01 0.00 37 1007.4
20260903232018 69 154 5.2 8.7 0.00 0.01 0.00 37 1007.5
20260903231535 69 166 5.2 8.7 0.00 0.01 0.00 38 1007.5
20260903231101 69 201 4.3 8.7 0.00 0.01 0.00 38 1007.5
20260903230506 69 166 7.0 8.7 0.00 0.01 0.00 38 1007.7
20260903230038 69 144 4.3 9.6 0.00 0.01 0.00 38 1007.6
20260903225546 69 163 6.1 9.6 0.00 0.01 0.00 37 1007.6
20260903225019 69 157 6.1 9.6 0.00 0.01 0.00 38 1007.6
20260903224550 69 202 4.3 10.4 0.00 0.01 0.00 39 1007.6
20260903224044 69 160 5.2 10.4 0.00 0.01 0.00 40 1007.7
20260903223556 68 160 6.1 9.6 0.00 0.01 0.00 41 1007.8
20260903223031 68 175 6.1 14.8 0.00 0.01 0.00 40 1007.9
20260903222541 67 182 7.0 14.8 0.00 0.01 0.00 41 1007.9
20260903222007 67 171 7.0 13.0 0.00 0.01 0.00 39 1007.9
20260903221533 68 177 7.0 11.3 0.00 0.01 0.00 39 1007.9
20260903221057 68 183 5.2 11.3 0.00 0.01 0.00 41 1007.9
20260903220532 67 159 5.2 13.0 0.00 0.01 0.00 41 1008.1
20260903220057 68 178 7.8 13.0 0.00 0.01 0.00 40 1008.1